星链-32402 (STARLINK-32402)

导读

STARLINK-32402是美国SpaceX公司星链(Starlink)卫星互联网星座的成员,于2024年10月30日发射。星链计划旨在构建全球低轨卫星互联网,为偏远地区等提供高速宽带服务,该卫星将加入数千颗在轨星链卫星网络,助力实现全球覆盖,推动卫星互联网服务发展,但也引发天文观测与太空碎片等领域关注。

Basic Information
目录编号:
61708
目录名称:
STARLINK-32402
国际标识:
2024-196B
轨道中心:
EARTH
卫星名称:
星链-32402
卫星全名:
星链-32402 (STARLINK-32402)
卫星状态:
在轨 (已飞行681 天)
发射日期:
2024-10-30 UTC
国别 :
美国 (US)
星等 :
--
This satellite is enrolled in the Space Conjunction Data Service (SCDS) and the current flight risk assessment level is: No High Risk
Orbit Information
数据来源 国际轨道数据
星历时间: 2026-09-11T21:29:52+0800
7小时前
查看轨道信息
半长轴: 6840.854km
偏心率: 0.0001468
轨道倾角: 53.159°
近地点辐角 62.937°
升交点赤经 315.217°
平近点角 297.178°
近地点: 461.712km
远地点: 463.722km
周期: 93.848分钟
每日圈数: 15.343954
Detailed Information
固有亮度:
5
最大亮度:
2.5
卫星平台:
Starlink V1.0
覆盖范围:
全球
运营商:
太空探索技术公司
运营商所在国:
美国
制造商(研发单位):
太空探索技术公司
制造商所在国:
美国
使用方式:
暂无
Satellite Introduction
Starlink 计划是 SpaceX 推出的全球卫星互联网项目,通过发射低轨道卫星,为全球尤其是偏远地区提供高速、低延迟的互联网服务。自 2019 年起,Starlink 已部署数千颗卫星,旨在缩小全球数字鸿沟,推动互联网普及。该项目还为军事、航空等行业提供通信支持,带来广泛经济效益。
2D Orbit Map
3D Orbit Map
Orbit Altitude Analysis Chart
Orbit Inclination Analysis Chart
Orbit Comprehensive Analysis Chart
View Comprehensive Chart
Conjunction Data List
Event ID Objects TCA Miss Dist (km) Collision Risk Probability Collision Risk Index (CRI) Action
CDM_260914-040506-170806-920821
2026-09-14T
04:05:54+0000
0.421 km
远距离
2.623175E-4 高风险 0.83
CDM_260913-085906-170806-808621
2026-09-13T
08:59:03+0000
1.281 km
极远距离
7.066264E-6 低风险 0.52
CDM_260913-190806-170806-808621
2026-09-13T
19:08:41+0000
1.552 km
极远距离
3.777398E-6 低风险 0.47
CDM_260913-072506-170806-808621
2026-09-13T
07:25:15+0000
1.943 km
极远距离
1.991688E-6 低风险 0.41
CDM_260913-173406-170806-808621
2026-09-13T
17:34:54+0000
1.962 km
极远距离
1.946479E-6 低风险 0.41
Miss Distance Evolution Trend with All Objects
Collision Probability Evolution Trend with All Objects